Weather History for SVBS - May, 2013

Change the Weather History Date:

Sunday, May 26, 2013

  Actual Average Record
Temperature  
Mean Temperature 80 °F -  
Max Temperature 90 °F 87 °F 93 °F (1999)
Min Temperature 71 °F 72 °F 68 °F (2002)
Cooling Degree Days 16    
Growing Degree Days 30 (Base 50)    
Moisture  
Dew Point 66 °F    
Average Humidity 59    
Maximum Humidity 88    
Minimum Humidity 33    
Precipitation  
Precipitation 0.00 in - - ()
Sea Level Pressure  
Sea Level Pressure 29.98 in    
Wind  
Wind Speed 3 mph ()    
Max Wind Speed 13 mph    
Max Gust Speed -    
Visibility 6.5 miles    
Events      
Averages and records for this station are not official NWS values.
T = Trace of Precipitation, MM = Missing Value Source: Averaged Metar Reports

Daily Weather History Graph

Daily Weather History Graph

Search for Another Location

Airport or City:

Trip Planner

Search our weather history database for the weather conditions in past years. The results will help you decide how hot, cold, wet, or windy it might be!

Date:

Astronomy

May. 26, 2013 Rise Set
Actual Time 5:37 AM -0430 6:17 PM -0430
Civil Twilight 5:15 AM -0430 6:40 PM -0430
Nautical Twilight 4:48 AM -0430 7:06 PM -0430
Astronomical Twilight 4:21 AM -0430 7:33 PM -0430
Moon 8:05 PM -0430 (5/26) 7:01 AM -0430 (5/26)
Length of Visible Light 13h 24m
Length of Day
12h 39m
Waning Gibbous, 97% of the Moon is Illuminated
May 26
Waning Gibbous
May 31
Last Quarter
Jun 8
New
Jun 16
First Quarter
Jun 23
Full

Hourly Weather History & Observations

Time (-0430) Temp. Heat Index Dew Point Humidity Pressure Visibility Wind Dir Wind Speed Gust Speed Precip Events Conditions
1:30 AM 76 °F - 70 °F 76% 29.87 in 6 mi WNW 1.2 mph - -   Partly Cloudy
1:30 AM 75.2 °F - 69.8 °F 83% 29.98 in 6.2 mi North 2.3 mph - N/A   Scattered Clouds
4:30 AM 73.4 °F - 68.0 °F 83% 29.95 in 6.2 mi Calm Calm - N/A   Mostly Cloudy
5:30 AM 71.6 °F - 68.0 °F 88% 29.92 in 6.2 mi Calm Calm - N/A   Scattered Clouds
6:30 AM 73.4 °F - 68.0 °F 83% 30.01 in 6.2 mi Calm Calm - N/A   Partly Cloudy
7:30 AM 73.4 °F - 64.4 °F 73% 30.01 in 6.2 mi ENE 2.3 mph - N/A   Partly Cloudy
8:30 AM 78.8 °F - 66.2 °F 65% 30.04 in 6.2 mi Calm Calm - N/A   Partly Cloudy
9:30 AM 84.2 °F 85.6 °F 64.4 °F 51% 30.04 in 6.2 mi ENE 4.6 mph - N/A   Partly Cloudy
10:30 AM 86.0 °F 87.3 °F 64.4 °F 48% 30.04 in 6.2 mi ESE 4.6 mph - N/A   Partly Cloudy
11:30 AM 87.8 °F 88.5 °F 62.6 °F 43% 30.04 in 6.2 mi East 6.9 mph - N/A   Partly Cloudy
12:30 PM 87.8 °F 89.4 °F 64.4 °F 46% 30.01 in 6.2 mi WSW 5.8 mph - N/A   Partly Cloudy
1:30 PM 90 °F - 64 °F 33% 29.91 in 12 mi SSW 6.7 mph - -   Partly Cloudy
1:30 PM 89.6 °F 91.1 °F 64.4 °F 43% 30.01 in 6.2 mi SSW 6.9 mph - N/A   Unknown
2:30 PM 87.8 °F 90.4 °F 66.2 °F 49% 29.98 in 6.2 mi SSW 4.6 mph - N/A   Scattered Clouds
3:30 PM 89.6 °F 92.2 °F 66.2 °F 46% 29.95 in 6.2 mi West 9.2 mph - N/A   Scattered Clouds
5:30 PM 84.2 °F 85.6 °F 64.4 °F 51% 29.95 in 6.2 mi West 6.9 mph - N/A   Mostly Cloudy
6:30 PM 80.6 °F 82.7 °F 66.2 °F 61% 29.95 in 6.2 mi West 4.6 mph - N/A   Mostly Cloudy
7:30 PM 83 °F - 64 °F 43% 29.86 in 6 mi SE 13.4 mph - -   Mostly Cloudy
7:30 PM 82.4 °F 83.9 °F 64.4 °F 54% 29.95 in 6.2 mi SE 12.7 mph - N/A   Mostly Cloudy
10:30 PM 78.8 °F - 68.0 °F 69% 30.04 in 6.2 mi East 3.5 mph - N/A   Mostly Cloudy